STARLINK-32440, 61714

Orbit data source: Space-Track

STARLINK-32440, 61714 is a payload satellite owned by SpaceX/Seattle (US) in LEO that was launched on Wed, 30 Oct 2024 UTC via an FALCON 9 launch vehicle from the Air Force Eastern Test Range (AFETR). Payload-class satellites include a variety of spacecraft equipped with specific instruments for various scientific and technological missions. These include communications satellites like Starlink; space stations such as the ISS; scientific satellites like the Hubble; Earth observation satellites from companies like Planet Labs, Umbra, and HawkEye 360; GPS; miniature CubeSats for education and research; and military/defense satellites.

Loading next visibility...
Identifier
61714, 2024-196H
Orbit
LEO
Last TLE update
1 day ago
Origin
Manufacturer
SpaceX/Seattle
Mission
Operational Commercial Communications
Bus & Motor
STARLINK V2M, Unknown motor
Mass
730 kg wet, ~700 kg dry
Launch date (UTC)
2024-10-30 (6 months ago)
Launch vehicle
FALCON 9
Launch site
Air Force Eastern Test Range (AFETR)
Object type
Payload
Rocket body
Debris
Shape & HBR
Box + 2 Pan, 29 m
Radar Cross Section
36.964 m², Large (>1 m²)

Expand to show TLE details & history

TLE from 1 day ago
0 STARLINK-32440
1 61714U 24196H   25128.58757310  .00000019  00000-0  12785-4 0  9992
2 61714  53.1608  78.5363 0001466  89.7237 270.3932 15.30186537 30142
Epoch: 2025-05-08T14:06Z
Definitive object data (Epoch: 2025-05-08T14:06:06.315Z)
Latitude
-0.00002°
Longitude
0.35405°
Altitude
476.148 km
Speed
7.629 km/s
True Right ascension
05h 14m 08s
True Declination
0° 00' 00"
Sunlit
Object was in daylight at TLE epoch
Visualization TLE readout
Latitude
-21.31204°
Longitude
-21.67915°
Altitude
481.743 km
Speed
7.624 km/s
Apparent Right ascension
07h 05m 20s
Apparent Declination
-55° 36' 24"
Sunlit
Object is in daylight
Visualization observer readout
Local Sidereal Time
00:48:30
Azimuth
137.103° SSE
Elevation
-34.144°
Doppler factor
1
Orbital elements
Apogee altitude
476.516 km
Perigee altitude
474.507 km
Semi-major axis
6,853.649 km
Eccentricity
0.0001466
Inclination
53.1608°
RAAN
78.5363°
Arg. of periapsis
89.7237°
True anomaly
270.3764°
Mean anomaly
270.3932°
Eccentric anomaly
270.3848°
Mean motion
3.82526 °/min
BSTAR
0.000012785
Orbital period
94.11 mins
Loading maneuver chart data...
Loading SW <> Apogee altitude chart data...
Loading historical data...
Loading historical data...
Loading historical data...
Loading historical data...
Loading historical data...
Loading historical data...
Loading historical data...

STARLINK-32440 Visibility forecast

Observer location: undefined°, undefined°

Span
Click to sort rows by Start time (UTC) header in descending order
Start Az.
Max El. time (UTC)
Max El. Az.
Max El.
End time (UTC)
End Az.
5 mins2025-05-09 23:12:59.750Z232.625° WSW2025-05-09 23:14:59.750Z254.842° W44.089°2025-05-09 23:17:59.750Z48.154° ENE
4 mins2025-05-10 04:09:59.750Z345.227° N2025-05-10 04:11:59.750Z22.627° NE16.606°2025-05-10 04:13:59.750Z58.973° ENE
5 mins2025-05-10 05:47:59.750Z313.608° NW2025-05-10 05:49:59.750Z338.933° N43.415°2025-05-10 05:52:59.750Z126.219° SE
|